Location: Nickerson Gardens
(33.9320°N, 118.2484°W)
Time: 07:04:06
(UTC+00:00)

Cosmos 2322 Rocket - Pass Details

Date: 29 October 2020
Orbit: 832 x 851 km, 71.0° (Epoch: 28 November)

Event Time Altitude Azimuth Distance (km) Brightness Sun altitude
Rises 13:24:29 0° 348° (NNW) 3,411 5.1 -10.1°
Reaches altitude 10° 13:27:08 10° 357° (N) 2,470 4.5 -9.6°
Maximum altitude 13:32:21 37° 63° (ENE) 1,292 3.7 -8.5°
Drops below altitude 10° 13:37:30 10° 130° (SE) 2,447 5.7 -7.4°
Sets 13:40:07 0° 139° (SE) 3,374 6.3 -6.9°
